Location: D�nning
(49.2479°N, 12.8491°E)
Time: 15:04:14
(UTC+00:00)

CZ-4 R/B - Pass Details

Date: 18 September 2020
Orbit: 530 x 600 km, 97.7° (Epoch: 24 October)

Event Time Altitude Azimuth Distance (km) Brightness Sun altitude
Rises 18:44:56 0° 206° (SSW) 2,838 5.0 -15.2°
Reaches altitude 10° 18:47:43 10° 226° (SW) 1,941 4.4 -15.7°
Maximum altitude 18:50:36 18° 269° (W) 1,506 4.5 -16.1°
Drops below altitude 10° 18:53:28 10° 312° (NW) 1,944 5.2 -16.5°
Sets 18:56:16 0° 332° (NNW) 2,844 5.8 -16.9°
